K3GM Weather Reports


time (UTC)temp
C
wind
direction
speed
KPH
gust
KPH
rain 1hr
cm
rain 24hr
cm
rain mn
cm
humidity
%
barometer
mb
20260510214534 20 316 0.0 3.2 0.00 0.00 0.00 79 1014.5
20260510213035 21 0 0.0 1.6 0.00 0.00 0.00 72 1013.6
20260510211536 21 0 0.0 8.0 0.00 0.00 0.00 67 1013.1
20260510210035 22 0 4.8 17.7 0.00 0.00 0.00 64 1013.0
20260510204535 23 0 0.0 4.8 0.00 0.00 0.00 48 1012.9
20260510203033 24 105 0.0 3.2 0.00 0.00 0.00 49 1012.4
20260510201535 25 0 0.0 6.4 0.00 0.00 0.00 44 1012.4
20260510200036 25 0 0.0 1.6 0.00 0.00 0.00 44 1012.8
20260510194534 24 0 0.0 4.8 0.00 0.00 0.00 45 1012.9
20260510193036 23 0 0.0 4.8 0.00 0.00 0.00 47 1013.0
20260510191534 23 319 0.0 4.8 0.00 0.00 0.00 46 1013.0
20260510190037 23 0 0.0 8.0 0.00 0.00 0.00 54 1013.0
20260510184538 24 0 0.0 3.2 0.00 0.03 0.00 54 1013.1
20260510183035 24 0 0.0 1.6 0.00 0.03 0.00 47 1012.9
20260510181536 25 0 0.0 1.6 0.00 0.03 0.00 46 1012.8
20260510180042 26 0 0.0 6.4 0.00 0.03 0.00 48 1013.0
20260510174531 25 0 0.0 6.4 0.00 0.03 0.00 50 1013.2
20260510173038 25 0 0.0 11.3 0.00 0.03 0.00 49 1013.2
20260510171545 25 0 0.0 4.8 0.00 0.03 0.00 45 1013.2
20260510170041 25 0 0.0 6.4 0.00 0.03 0.00 44 1013.3
20260510164536 24 93 0.0 3.2 0.00 0.03 0.00 56 1013.4
20260510163030 23 0 0.0 4.8 0.00 0.03 0.00 52 1013.6
20260510161535 22 0 0.0 8.0 0.00 0.03 0.00 55 1013.4
20260510160034 22 0 0.0 6.4 0.00 0.03 0.00 62 1013.7
20260510154539 22 0 0.0 3.2 0.00 0.03 0.00 59 1013.6
20260510153048 21 0 0.0 9.7 0.00 0.03 0.00 61 1013.7
20260510151538 20 0 0.0 1.6 0.00 0.03 0.00 62 1013.8
20260510150035 19 0 0.0 4.8 0.00 0.03 0.00 76 1013.9
20260510144535 18 0 0.0 3.2 0.00 0.03 0.00 79 1013.8
20260510143040 17 86 1.6 4.8 0.00 0.03 0.00 79 1013.8
20260510141541 16 0 0.0 4.8 0.00 0.03 0.00 76 1013.9
20260510140036 15 0 0.0 6.4 0.00 0.03 0.00 87 1013.9
20260510134535 15 0 0.0 1.6 0.00 0.03 0.00 86 1013.9
20260510133035 13 0 0.0 6.4 0.00 0.03 0.00 91 1013.7
20260510131536 12 0 0.0 1.6 0.00 0.03 0.00 100 1013.9
20260510130046 12 0 0.0 0.0 0.00 0.03 0.00 100 1014.1
20260510124548 12 0 0.0 0.0 0.00 0.03 0.00 100 1013.8
20260510123037 12 0 0.0 1.6 0.00 0.03 0.00 100 1013.6
20260510121539 11 0 0.0 4.8 0.00 0.03 0.00 100 1013.5
20260510120035 11 0 0.0 3.2 0.00 0.03 0.00 100 1013.5
20260510114536 11 0 0.0 3.2 0.00 0.03 0.00 100 1013.2
20260510113040 11 0 0.0 3.2 0.00 0.03 0.00 100 1013.2
20260510111536 11 0 0.0 1.6 0.00 0.03 0.00 100 1012.9
20260510110042 11 0 0.0 3.2 0.00 0.03 0.00 100 1012.7
20260510104535 10 0 0.0 3.2 0.00 0.03 0.00 100 1012.6
20260510103038 10 0 0.0 0.0 0.00 0.03 0.00 100 1012.3
20260510101539 10 0 0.0 0.0 0.00 0.03 0.00 100 1012.4
20260510100035 10 0 0.0 1.6 0.00 0.03 0.00 100 1012.5
20260510094535 10 0 0.0 6.4 0.00 0.03 0.00 100 1012.3
20260510093035 10 0 0.0 8.0 0.00 0.03 0.00 100 1012.2
20260510091539 10 0 0.0 12.9 0.00 0.03 0.00 100 1012.1
20260510090037 10 341 0.0 8.0 0.00 0.03 0.00 100 1011.9
20260510084537 10 0 0.0 0.0 0.00 0.03 0.00 100 1011.7
20260510083045 10 0 0.0 0.0 0.00 0.03 0.00 100 1011.7
20260510081536 10 0 0.0 1.6 0.00 0.03 0.00 100 1011.6
20260510080037 10 0 0.0 3.2 0.00 0.03 0.00 100 1011.6
20260510074542 10 0 0.0 4.8 0.00 0.03 0.00 100 1011.5
20260510073036 10 0 0.0 3.2 0.00 0.03 0.00 100 1011.3
20260510071539 10 0 0.0 0.0 0.00 0.03 0.00 100 1011.0
20260510070036 10 0 0.0 0.0 0.00 0.03 0.00 100 1011.0
20260510064539 10 0 0.0 0.0 0.00 0.03 0.00 100 1011.0
20260510063036 10 0 0.0 0.0 0.00 0.03 0.00 100 1010.9
20260510061537 10 0 0.0 0.0 0.00 0.03 0.00 100 1011.1
20260510060037 10 0 0.0 0.0 0.00 0.03 0.00 100 1011.0
20260510054535 10 0 0.0 0.0 0.00 0.03 0.00 100 1011.3
20260510053033 10 0 0.0 0.0 0.00 0.03 0.00 100 1011.3
20260510051537 10 0 0.0 0.0 0.00 0.03 0.00 100 1011.4
20260510050038 10 0 0.0 0.0 0.00 0.03 0.00 100 1011.6
20260510044532 10 0 0.0 0.0 0.00 0.03 0.00 100 1011.7
20260510043035 11 0 0.0 0.0 0.00 0.03 0.00 100 1011.7
20260510041532 11 0 0.0 0.0 0.00 0.03 0.00 100 1011.8
20260510040038 11 0 0.0 0.0 0.00 0.03 0.00 99 1011.7
20260510034535 11 0 0.0 0.0 0.00 0.03 0.03 99 1011.7
20260510033043 11 0 0.0 0.0 0.00 0.03 0.03 99 1011.4
20260510031535 11 0 0.0 0.0 0.00 0.03 0.03 98 1011.2
20260510030031 11 0 0.0 0.0 0.00 0.03 0.03 98 1010.9
20260510024536 11 0 0.0 0.0 0.00 0.03 0.03 97 1011.2
20260510023034 11 0 0.0 0.0 0.00 0.03 0.03 97 1011.1
20260510021535 11 0 0.0 0.0 0.00 0.03 0.03 96 1011.1
20260510020036 11 0 0.0 0.0 0.00 0.03 0.03 95 1010.9
20260510014531 12 0 0.0 0.0 0.00 0.03 0.03 94 1010.8
20260510013036 12 0 0.0 0.0 0.00 0.03 0.03 92 1011.1
20260510011536 12 0 0.0 0.0 0.00 0.03 0.03 92 1010.9
20260510010038 12 0 0.0 0.0 0.00 0.03 0.03 90 1010.7
20260510004535 13 0 0.0 0.0 0.00 0.03 0.03 89 1010.7
20260510003035 13 0 0.0 0.0 0.00 0.03 0.03 88 1010.7
20260510001536 13 0 0.0 0.0 0.00 0.03 0.03 87 1010.6
20260510000039 14 0 0.0 0.0 0.00 0.03 0.03 86 1010.7
20260509234542 14 0 0.0 0.0 0.00 0.03 0.03 85 1010.7
20260509233036 14 0 0.0 1.6 0.00 0.03 0.03 84 1010.4
20260509231534 15 0 0.0 6.4 0.00 0.03 0.03 84 1010.2
20260509230041 15 86 1.6 9.7 0.00 0.03 0.03 84 1010.2
20260509224546 15 0 0.0 4.8 0.00 0.03 0.03 85 1010.4
20260509223033 15 350 0.0 6.4 0.00 0.03 0.03 85 1010.5
20260509221533 15 0 0.0 3.2 0.00 0.03 0.03 85 1010.7
20260509220034 15 0 0.0 8.0 0.00 0.03 0.03 85 1010.7